Time,TemperatureF,DewpointF,PressureIn,WindDirection,WindDirectionDegrees,WindSpeedMPH,WindSpeedGustMPH,Humidity,HourlyPrecipIn,Conditions,Clouds,dailyrainin,SoftwareType,DateUTC
2013-07-07 00:01:00,79.0,65.0,-100.00,SSE,155,8.0,14.0,62,0.00,,,-99.99,,2013-07-07 05:01:00,
2013-07-07 00:11:00,78.0,65.0,-100.00,SSE,150,7.0,13.0,63,0.00,,,-99.99,,2013-07-07 05:11:00,
2013-07-07 00:21:00,78.0,65.0,-100.00,SSE,160,9.0,12.0,63,0.00,,,-99.99,,2013-07-07 05:21:00,
2013-07-07 00:31:00,78.0,65.0,-100.00,SSE,165,7.0,13.0,63,0.00,,,-99.99,,2013-07-07 05:31:00,
2013-07-07 00:41:00,78.0,65.0,-100.00,SSE,165,9.0,14.0,64,0.00,,,-99.99,,2013-07-07 05:41:00,
2013-07-07 01:01:00,77.0,64.0,-100.00,SSE,165,7.0,12.0,65,0.00,,,-99.99,,2013-07-07 06:01:00,
2013-07-07 01:11:00,77.0,64.0,-100.00,SSE,165,6.0,11.0,65,0.00,,,-99.99,,2013-07-07 06:11:00,
2013-07-07 01:21:00,76.0,65.0,-100.00,South,175,7.0,11.0,67,0.00,,,-99.99,,2013-07-07 06:21:00,
2013-07-07 01:32:00,76.0,65.0,-100.00,South,175,7.0,11.0,67,0.00,,,-99.99,,2013-07-07 06:32:00,
2013-07-07 01:43:00,76.0,65.0,-100.00,South,175,7.0,11.0,67,0.00,,,-99.99,,2013-07-07 06:43:00,
2013-07-07 02:02:00,74.0,65.0,-100.00,South,175,6.0,9.0,72,0.00,,,-99.99,,2013-07-07 07:02:00,
2013-07-07 02:11:00,74.0,65.0,-100.00,South,175,7.0,9.0,73,0.00,,,-99.99,,2013-07-07 07:11:00,
2013-07-07 02:22:00,74.0,65.0,-100.00,South,190,6.0,9.0,72,0.00,,,-99.99,,2013-07-07 07:22:00,
2013-07-07 02:33:00,74.0,65.0,-100.00,SSW,195,6.0,7.0,72,0.00,,,-99.99,,2013-07-07 07:33:00,
2013-07-07 02:44:00,74.0,65.0,-100.00,SSW,195,6.0,7.0,72,0.00,,,-99.99,,2013-07-07 07:44:00,
2013-07-07 03:02:00,74.0,64.0,-100.00,South,180,5.0,7.0,71,0.00,,,-99.99,,2013-07-07 08:02:00,
2013-07-07 03:22:00,74.0,63.0,-100.00,South,190,6.0,7.0,68,0.04,,,-99.99,,2013-07-07 08:22:00,
2013-07-07 03:34:00,74.0,63.0,-100.00,South,190,6.0,7.0,68,0.04,,,-99.99,,2013-07-07 08:34:00,
2013-07-07 03:44:00,74.0,63.0,-100.00,SSE,165,5.0,7.0,68,0.00,,,-99.99,,2013-07-07 08:44:00,
2013-07-07 04:02:00,74.0,63.0,-100.00,SSE,160,6.0,7.0,68,0.00,,,-99.99,,2013-07-07 09:02:00,
2013-07-07 04:12:00,74.0,64.0,-100.00,SSE,160,4.0,7.0,71,0.00,,,-99.99,,2013-07-07 09:12:00,
2013-07-07 04:22:00,74.0,64.0,-100.00,South,170,4.0,7.0,71,0.00,,,-99.99,,2013-07-07 09:22:00,
2013-07-07 04:34:00,74.0,64.0,-100.00,SSE,160,5.0,7.0,71,0.00,,,-99.99,,2013-07-07 09:34:00,
2013-07-07 04:43:00,74.0,64.0,-100.00,South,180,6.0,9.0,71,0.00,,,-99.99,,2013-07-07 09:43:00,
2013-07-07 05:03:00,73.0,64.0,-100.00,South,170,6.0,9.0,73,0.00,,,-99.99,,2013-07-07 10:03:00,
2013-07-07 05:12:00,73.0,64.0,-100.00,South,175,7.0,10.0,74,0.00,,,-99.99,,2013-07-07 10:12:00,
2013-07-07 05:22:00,73.0,64.0,-100.00,South,170,6.0,8.0,74,0.00,,,-99.99,,2013-07-07 10:22:00,
2013-07-07 05:32:00,73.0,64.0,-100.00,SSE,165,6.0,8.0,74,0.00,,,-99.99,,2013-07-07 10:32:00,
2013-07-07 05:43:00,73.0,65.0,-100.00,SSE,150,6.0,10.0,74,0.00,,,-99.99,,2013-07-07 10:43:00,
2013-07-07 06:02:00,73.0,65.0,-100.00,SSE,165,4.0,7.0,75,0.00,,,-99.99,,2013-07-07 11:02:00,
2013-07-07 06:11:00,73.0,65.0,-100.00,SSE,150,4.0,7.0,76,0.00,,,-99.99,,2013-07-07 11:11:00,
2013-07-07 06:23:00,72.0,65.0,-100.00,SSE,150,4.0,8.0,77,0.00,,,-99.99,,2013-07-07 11:23:00,
2013-07-07 06:34:00,72.0,65.0,-100.00,SSE,150,4.0,8.0,77,0.00,,,-99.99,,2013-07-07 11:34:00,
2013-07-07 06:43:00,72.0,65.0,-100.00,SSE,165,7.0,10.0,77,0.00,,,-99.99,,2013-07-07 11:43:00,
2013-07-07 06:53:00,72.0,65.0,-100.00,SSE,150,6.0,9.0,77,0.00,,,-99.99,,2013-07-07 11:53:00,
2013-07-07 07:02:00,73.0,65.0,-100.00,SSE,165,6.0,10.0,77,0.00,,,-99.99,,2013-07-07 12:02:00,
2013-07-07 07:12:00,73.0,65.0,-100.00,SSE,155,6.0,9.0,76,0.00,,,-99.99,,2013-07-07 12:12:00,
2013-07-07 07:22:00,73.0,65.0,-100.00,SSE,160,7.0,9.0,76,0.00,,,-99.99,,2013-07-07 12:22:00,
2013-07-07 07:34:00,74.0,65.0,-100.00,SSE,160,6.0,9.0,75,0.00,,,-99.99,,2013-07-07 12:34:00,
2013-07-07 07:43:00,74.0,66.0,-100.00,SSE,165,6.0,8.0,74,0.00,,,-99.99,,2013-07-07 12:43:00,
2013-07-07 07:52:00,75.0,65.0,-100.00,SSE,165,6.0,9.0,73,0.00,,,-99.99,,2013-07-07 12:52:00,
2013-07-07 08:22:00,76.0,66.0,-100.00,SSE,165,6.0,7.0,70,0.00,,,-99.99,,2013-07-07 13:22:00,
2013-07-07 08:34:00,77.0,66.0,-100.00,SSE,155,6.0,9.0,68,0.00,,,-99.99,,2013-07-07 13:34:00,
2013-07-07 08:43:00,77.0,66.0,-100.00,SSE,155,6.0,9.0,68,0.00,,,-99.99,,2013-07-07 13:43:00,
2013-07-07 08:52:00,78.0,66.0,-100.00,South,170,7.0,9.0,67,0.00,,,-99.99,,2013-07-07 13:52:00,
2013-07-07 09:02:00,78.0,66.0,-100.00,South,170,7.0,9.0,67,0.00,,,-99.99,,2013-07-07 14:02:00,
2013-07-07 09:12:00,80.0,65.0,-100.00,South,190,7.0,11.0,61,0.00,,,-99.99,,2013-07-07 14:12:00,
2013-07-07 09:22:00,81.0,65.0,-100.00,South,180,6.0,11.0,58,0.00,,,-99.99,,2013-07-07 14:22:00,
2013-07-07 09:34:00,82.0,65.0,-100.00,South,180,9.0,14.0,56,0.00,,,-99.99,,2013-07-07 14:34:00,
2013-07-07 09:43:00,83.0,63.0,-100.00,SSW,195,14.0,17.0,50,0.00,,,-99.99,,2013-07-07 14:43:00,
2013-07-07 10:02:00,84.0,62.0,-100.00,SSW,200,14.0,21.0,46,0.00,,,-99.99,,2013-07-07 15:02:00,
2013-07-07 10:11:00,85.0,62.0,-100.00,SSW,200,12.0,22.0,45,0.00,,,-99.99,,2013-07-07 15:11:00,
2013-07-07 10:22:00,85.0,61.0,-100.00,SSW,210,12.0,24.0,44,0.00,,,-99.99,,2013-07-07 15:22:00,
2013-07-07 10:34:00,85.0,60.0,-100.00,SSW,210,20.0,26.0,42,0.00,,,-99.99,,2013-07-07 15:34:00,
2013-07-07 10:43:00,86.0,61.0,-100.00,SSW,210,11.0,24.0,42,0.00,,,-99.99,,2013-07-07 15:43:00,
2013-07-07 11:01:00,86.0,60.0,-100.00,SSW,195,18.0,24.0,41,0.00,,,-99.99,,2013-07-07 16:01:00,
2013-07-07 11:11:00,87.0,61.0,-100.00,SSW,195,17.0,24.0,42,0.00,,,-99.99,,2013-07-07 16:11:00,
2013-07-07 11:23:00,87.0,61.0,-100.00,SW,220,14.0,24.0,42,0.00,,,-99.99,,2013-07-07 16:23:00,
2013-07-07 11:34:00,88.0,62.0,-100.00,SSW,200,15.0,20.0,42,0.00,,,-99.99,,2013-07-07 16:34:00,
2013-07-07 11:43:00,88.0,62.0,-100.00,South,190,13.0,19.0,42,0.00,,,-99.99,,2013-07-07 16:43:00,
2013-07-07 11:53:00,88.0,62.0,-100.00,SSW,205,16.0,21.0,41,0.00,,,-99.99,,2013-07-07 16:53:00,
2013-07-07 12:02:00,88.0,62.0,-100.00,SSW,205,16.0,21.0,41,0.00,,,-99.99,,2013-07-07 17:02:00,
2013-07-07 12:12:00,89.0,62.0,-100.00,SSW,200,17.0,26.0,41,0.00,,,-99.99,,2013-07-07 17:12:00,
2013-07-07 12:22:00,89.0,62.0,-100.00,SSW,210,12.0,24.0,40,0.00,,,-99.99,,2013-07-07 17:22:00,
2013-07-07 12:34:00,89.0,62.0,-100.00,SSW,200,16.0,23.0,40,0.00,,,-99.99,,2013-07-07 17:34:00,
2013-07-07 12:43:00,89.0,63.0,-100.00,SSW,200,14.0,23.0,41,0.00,,,-99.99,,2013-07-07 17:43:00,
2013-07-07 13:02:00,90.0,63.0,-100.00,SSW,210,12.0,20.0,40,0.00,,,-99.99,,2013-07-07 18:02:00,
2013-07-07 13:11:00,90.0,63.0,-100.00,SSW,205,14.0,22.0,40,0.00,,,-99.99,,2013-07-07 18:11:00,
2013-07-07 13:22:00,90.0,63.0,-100.00,SSW,205,14.0,22.0,40,0.00,,,-99.99,,2013-07-07 18:22:00,
2013-07-07 13:33:00,90.0,63.0,-100.00,SSW,205,16.0,23.0,40,0.00,,,-99.99,,2013-07-07 18:33:00,
2013-07-07 13:43:00,90.0,63.0,-100.00,SSW,205,14.0,21.0,40,0.00,,,-99.99,,2013-07-07 18:43:00,
2013-07-07 14:01:00,90.0,63.0,-100.00,SSE,165,14.0,20.0,40,0.00,,,-99.99,,2013-07-07 19:01:00,
2013-07-07 14:11:00,91.0,64.0,-100.00,SW,215,12.0,20.0,40,0.00,,,-99.99,,2013-07-07 19:11:00,
2013-07-07 14:22:00,91.0,63.0,-100.00,SSW,195,15.0,21.0,40,0.00,,,-99.99,,2013-07-07 19:22:00,
2013-07-07 14:34:00,91.0,64.0,-100.00,South,185,16.0,19.0,40,0.00,,,-99.99,,2013-07-07 19:34:00,
2013-07-07 14:43:00,90.0,63.0,-100.00,SW,215,13.0,21.0,40,0.00,,,-99.99,,2013-07-07 19:43:00,
2013-07-07 15:02:00,90.0,64.0,-100.00,SSW,200,12.0,19.0,40,0.00,,,-99.99,,2013-07-07 20:02:00,
2013-07-07 15:11:00,90.0,64.0,-100.00,SSW,195,9.0,18.0,41,0.00,,,-99.99,,2013-07-07 20:11:00,
2013-07-07 15:22:00,90.0,64.0,-100.00,SSW,195,9.0,18.0,41,0.00,,,-99.99,,2013-07-07 20:22:00,
2013-07-07 15:34:00,91.0,64.0,-100.00,South,175,13.0,19.0,40,0.00,,,-99.99,,2013-07-07 20:34:00,
2013-07-07 15:42:00,92.0,64.0,-100.00,SW,215,14.0,21.0,40,0.00,,,-99.99,,2013-07-07 20:42:00,
2013-07-07 16:02:00,91.0,64.0,-100.00,SW,215,12.0,22.0,40,0.00,,,-99.99,,2013-07-07 21:02:00,
2013-07-07 16:11:00,90.0,64.0,-100.00,SW,220,12.0,19.0,41,0.00,,,-99.99,,2013-07-07 21:11:00,
2013-07-07 16:22:00,91.0,64.0,-100.00,SW,225,12.0,22.0,40,0.00,,,-99.99,,2013-07-07 21:22:00,
2013-07-07 16:33:00,91.0,64.0,-100.00,SW,225,12.0,22.0,40,0.00,,,-99.99,,2013-07-07 21:33:00,
2013-07-07 16:43:00,90.0,64.0,-100.00,SSW,205,11.0,16.0,42,0.00,,,-99.99,,2013-07-07 21:43:00,
2013-07-07 16:53:00,91.0,65.0,-100.00,SSW,195,13.0,18.0,42,0.00,,,-99.99,,2013-07-07 21:53:00,
2013-07-07 17:01:00,90.0,64.0,-100.00,SW,215,12.0,20.0,42,0.00,,,-99.99,,2013-07-07 22:01:00,
2013-07-07 17:11:00,90.0,64.0,-100.00,SW,215,14.0,21.0,42,0.00,,,-99.99,,2013-07-07 22:11:00,
2013-07-07 17:22:00,90.0,64.0,-100.00,SSW,205,12.0,19.0,42,0.00,,,-99.99,,2013-07-07 22:22:00,
2013-07-07 17:34:00,90.0,64.0,-100.00,SSW,205,12.0,19.0,42,0.00,,,-99.99,,2013-07-07 22:34:00,
2013-07-07 17:43:00,89.0,64.0,-100.00,SW,230,13.0,19.0,44,0.00,,,-99.99,,2013-07-07 22:43:00,
2013-07-07 18:02:00,89.0,65.0,-100.00,SSW,195,11.0,19.0,45,0.00,,,-99.99,,2013-07-07 23:02:00,
2013-07-07 18:12:00,89.0,65.0,-100.00,SSW,205,11.0,17.0,45,0.00,,,-99.99,,2013-07-07 23:12:00,
2013-07-07 18:22:00,89.0,66.0,-100.00,South,185,9.0,17.0,46,0.00,,,-99.99,,2013-07-07 23:22:00,
2013-07-07 18:33:00,89.0,65.0,-100.00,South,190,9.0,13.0,46,0.00,,,-99.99,,2013-07-07 23:33:00,
2013-07-07 18:43:00,89.0,65.0,-100.00,South,190,9.0,13.0,46,0.00,,,-99.99,,2013-07-07 23:43:00,
2013-07-07 18:53:00,87.0,66.0,-100.00,SSE,165,8.0,12.0,49,0.00,,,-99.99,,2013-07-07 23:53:00,
2013-07-07 19:01:00,87.0,66.0,-100.00,SSE,165,8.0,12.0,49,0.00,,,-99.99,,2013-07-08 00:01:00,
2013-07-07 19:22:00,86.0,68.0,-100.00,SSE,165,6.0,10.0,53,0.00,,,-99.99,,2013-07-08 00:22:00,
2013-07-07 19:33:00,86.0,68.0,-100.00,South,180,7.0,9.0,55,0.00,,,-99.99,,2013-07-08 00:33:00,
2013-07-07 19:43:00,86.0,68.0,-100.00,South,175,6.0,10.0,55,0.00,,,-99.99,,2013-07-08 00:43:00,
2013-07-07 19:53:00,86.0,68.0,-100.00,South,180,7.0,11.0,55,0.00,,,-99.99,,2013-07-08 00:53:00,
2013-07-07 20:01:00,87.0,68.0,-100.00,South,190,9.0,12.0,53,0.00,,,-99.99,,2013-07-08 01:01:00,
2013-07-07 20:11:00,87.0,68.0,-100.00,SSE,165,7.0,11.0,53,0.00,,,-99.99,,2013-07-08 01:11:00,
2013-07-07 20:22:00,86.0,68.0,-100.00,SSE,165,6.0,9.0,54,0.00,,,-99.99,,2013-07-08 01:22:00,
2013-07-07 20:32:00,86.0,68.0,-100.00,SSE,165,5.0,9.0,55,0.00,,,-99.99,,2013-07-08 01:32:00,
2013-07-07 20:43:00,85.0,68.0,-100.00,SSE,165,6.0,10.0,57,0.00,,,-99.99,,2013-07-08 01:43:00,
2013-07-07 20:52:00,85.0,69.0,-100.00,SSE,165,6.0,12.0,58,0.00,,,-99.99,,2013-07-08 01:52:00,
2013-07-07 21:02:00,85.0,69.0,-100.00,SSE,165,7.0,9.0,59,0.00,,,-99.99,,2013-07-08 02:02:00,
2013-07-07 21:11:00,84.0,69.0,-100.00,South,170,7.0,11.0,60,0.00,,,-99.99,,2013-07-08 02:11:00,
2013-07-07 21:22:00,84.0,69.0,-100.00,South,180,7.0,9.0,60,0.00,,,-99.99,,2013-07-08 02:22:00,
2013-07-07 21:33:00,84.0,69.0,-100.00,SSE,165,7.0,10.0,61,0.00,,,-99.99,,2013-07-08 02:33:00,
2013-07-07 21:42:00,83.0,69.0,-100.00,South,180,6.0,10.0,62,0.00,,,-99.99,,2013-07-08 02:42:00,
2013-07-07 22:01:00,83.0,69.0,-100.00,South,170,6.0,9.0,63,0.00,,,-99.99,,2013-07-08 03:01:00,
2013-07-07 22:12:00,83.0,69.0,-100.00,SSE,160,8.0,11.0,63,0.00,,,-99.99,,2013-07-08 03:12:00,
2013-07-07 22:23:00,83.0,70.0,-100.00,SSE,160,7.0,11.0,64,0.00,,,-99.99,,2013-07-08 03:23:00,
2013-07-07 22:34:00,83.0,70.0,-100.00,SSE,165,7.0,11.0,65,0.00,,,-99.99,,2013-07-08 03:34:00,
2013-07-07 22:42:00,82.0,70.0,-100.00,South,170,7.0,11.0,66,0.00,,,-99.99,,2013-07-08 03:42:00,
2013-07-07 23:02:00,82.0,70.0,-100.00,South,170,6.0,10.0,67,0.00,,,-99.99,,2013-07-08 04:02:00,
2013-07-07 23:12:00,82.0,70.0,-100.00,South,185,6.0,9.0,68,0.00,,,-99.99,,2013-07-08 04:12:00,
2013-07-07 23:22:00,81.0,70.0,-100.00,South,180,4.0,8.0,69,0.00,,,-99.99,,2013-07-08 04:22:00,
2013-07-07 23:33:00,81.0,71.0,-100.00,South,180,6.0,7.0,70,0.00,,,-99.99,,2013-07-08 04:33:00,
2013-07-07 23:42:00,81.0,71.0,-100.00,South,185,6.0,8.0,70,0.00,,,-99.99,,2013-07-08 04:42:00,
2013-07-07 23:53:00,81.0,71.0,-100.00,South,190,5.0,9.0,70,0.00,,,-99.99,,2013-07-08 04:53:00,